NORTHEAST SUFFOLK  -  Coastal Flood Statement Coastal Flood Statement     Rip Current Statement Rip Current Statement     Rip Current Statement Rip Current Statement        NORTHWEST SUFFOLK  -  Coastal Flood Statement Coastal Flood Statement     Rip Current Statement Rip Current Statement     Rip Current Statement Rip Current Statement        SOUTHEAST SUFFOLK  -  Coastal Flood Statement Coastal Flood Statement     Rip Current Statement Rip Current Statement     Rip Current Statement Rip Current Statement        SOUTHWEST SUFFOLK  -  Coastal Flood Statement Coastal Flood Statement     Rip Current Statement Rip Current Statement     Rip Current Statement Rip Current Statement        NORTHERN NASSAU  -  Rip Current Statement Rip Current Statement        NORTHERN QUEENS  -  Rip Current Statement Rip Current Statement        SOUTHERN NASSAU  -  Rip Current Statement Rip Current Statement        SOUTHERN QUEENS  -  Rip Current Statement Rip Current Statement      

Active alerts

Northwest Suffolk
  Details for Northwest Suffolk Coastal Flood Statement  +2 additional alerts
Southwest Suffolk
  Details for Southwest Suffolk Coastal Flood Statement  +2 additional alerts
Northeast Suffolk
  Details for Northeast Suffolk Coastal Flood Statement  +2 additional alerts
Southeast Suffolk
  Details for Southeast Suffolk Coastal Flood Statement  +2 additional alerts
Northern Queens
  Details for Northern Queens Rip Current Statement
Southern Queens
  Details for Southern Queens Rip Current Statement
Northern Nassau
  Details for Northern Nassau Rip Current Statement
Southern Nassau
  Details for Southern Nassau Rip Current Statement


WXM80 ListenWXM80 Stop

You find our weather info also at:

UK Metoffice

WeatherCloud

Weather Underground

Northeastern Weather Network

AWEKAS

Citizen Weather Observer Program (CWOP)

HAMweather, WeatherForYou, PWS Weather


Weather Underground History page Text

Daily Summary for November 19, 2017 Units:  English    Metric   Both
« Previous Day
Next Day »
Daily Weekly Monthly Yearly Custom
  High: Low: Average:
Temperature: 58.7 °F 42.4 °F 51.4 °F
Dew Point: 56.7 °F 30.3 °F 43.7 °F
Humidity: 96 % 58 % 76 %
Wind Speed: 17.8 mph 2.0 mph 7.1 mph
Wind Gust: 28.0 mph - -
Wind:- - WSW
Pressure: 29.78 in 29.23 in -
Precipitation: 0.08 in    
Historical Graphs
 
 
Tabular Data for November 19, 2017
Time Temperature Dew Point Pressure Wind Wind Speed Wind Gust Humidity Rainfall Rate (Hourly)
00:00 56.8 °F 55.1 °F 29.45 in SW 2.8 mph 5.8 mph 94 % 0.00 in
00:05 56.9 °F 54.9 °F 29.44 in South 5.2 mph 8.1 mph 93 % 0.00 in
00:10 57.0 °F 55.0 °F 29.44 in South 4.0 mph 10.0 mph 93 % 0.00 in
00:15 57.1 °F 55.1 °F 29.43 in South 4.0 mph 8.0 mph 93 % 0.00 in
00:20 57.1 °F 54.8 °F 29.43 in SSW 6.2 mph 7.0 mph 92 % 0.00 in
00:25 57.2 °F 54.9 °F 29.43 in South 7.9 mph 12.7 mph 92 % 0.00 in
00:30 57.2 °F 54.6 °F 29.42 in SSW 4.8 mph 12.7 mph 91 % 0.00 in
00:35 57.3 °F 54.7 °F 29.41 in SW 3.3 mph 9.2 mph 91 % 0.00 in
00:40 57.3 °F 54.7 °F 29.41 in SSW 6.3 mph 9.2 mph 91 % 0.00 in
00:45 57.3 °F 54.7 °F 29.40 in South 5.5 mph 11.5 mph 91 % 0.00 in
00:50 57.4 °F 54.5 °F 29.40 in South 5.6 mph 6.0 mph 90 % 0.00 in
00:55 57.4 °F 54.5 °F 29.40 in SSW 4.6 mph 6.9 mph 90 % 0.00 in
01:00 57.4 °F 54.5 °F 29.40 in South 5.5 mph 11.5 mph 90 % 0.00 in
01:05 57.4 °F 54.2 °F 29.40 in South 7.0 mph 13.8 mph 89 % 0.00 in
01:15 57.4 °F 54.2 °F 29.39 in South 4.1 mph 13.8 mph 89 % 0.00 in
01:20 57.5 °F 54.3 °F 29.38 in South 5.0 mph 10.0 mph 89 % 0.00 in
01:25 57.5 °F 54.3 °F 29.38 in South 5.0 mph 13.0 mph 89 % 0.00 in
01:30 57.5 °F 54.3 °F 29.39 in South 3.0 mph 12.0 mph 89 % 0.00 in
01:35 57.5 °F 54.3 °F 29.38 in SSW 5.0 mph 12.0 mph 89 % 0.00 in
01:41 57.6 °F 54.4 °F 29.38 in SSW 7.0 mph 10.0 mph 89 % 0.00 in
01:46 57.7 °F 54.5 °F 29.37 in South 3.0 mph 20.0 mph 89 % 0.00 in
01:50 57.8 °F 54.6 °F 29.37 in South 7.0 mph 12.0 mph 89 % 0.00 in
02:00 58.0 °F 54.8 °F 29.36 in South 5.6 mph 8.1 mph 89 % 0.00 in
02:05 58.1 °F 54.9 °F 29.36 in SSW 5.7 mph 8.1 mph 89 % 0.00 in
02:15 58.3 °F 55.1 °F 29.35 in SSW 7.0 mph 17.0 mph 89 % 0.00 in
02:20 58.4 °F 55.2 °F 29.35 in SSW 6.0 mph 17.0 mph 89 % 0.00 in
02:25 58.4 °F 55.2 °F 29.35 in SSW 5.0 mph 12.0 mph 89 % 0.00 in
02:30 58.5 °F 55.3 °F 29.35 in SSW 5.0 mph 12.0 mph 89 % 0.00 in
02:35 58.6 °F 55.4 °F 29.35 in WSW 6.9 mph 16.1 mph 89 % 0.00 in
02:40 58.7 °F 55.5 °F 29.35 in SSW 5.3 mph 8.0 mph 89 % 0.00 in
02:45 58.7 °F 55.8 °F 29.34 in SSW 5.0 mph 16.0 mph 90 % 0.00 in
02:50 58.7 °F 55.8 °F 29.34 in SSW 7.0 mph 13.0 mph 90 % 0.00 in
03:01 58.5 °F 55.9 °F 29.33 in SSE 6.0 mph 14.0 mph 91 % 0.00 in
03:06 58.4 °F 56.1 °F 29.33 in SSW 6.1 mph 7.0 mph 92 % 0.00 in
03:10 58.3 °F 56.0 °F 29.32 in SSW 7.5 mph 11.5 mph 92 % 0.00 in
03:16 58.2 °F 55.9 °F 29.32 in SSW 6.0 mph 12.0 mph 92 % 0.00 in
03:21 58.2 °F 55.9 °F 29.32 in SSW 5.0 mph 20.0 mph 92 % 0.00 in
03:26 58.2 °F 55.9 °F 29.32 in SSW 3.0 mph 13.0 mph 92 % 0.00 in
03:31 58.2 °F 56.2 °F 29.31 in SSW 8.0 mph 14.0 mph 93 % 0.00 in
03:36 58.1 °F 56.1 °F 29.31 in SSW 7.0 mph 12.0 mph 93 % 0.00 in
03:41 58.1 °F 56.1 °F 29.30 in SSW 6.0 mph 12.0 mph 93 % 0.00 in
03:51 57.9 °F 55.9 °F 29.30 in SSW 2.0 mph 9.0 mph 93 % 0.00 in
03:56 57.8 °F 55.8 °F 29.30 in SSW 7.0 mph 13.0 mph 93 % 0.00 in
04:01 57.7 °F 55.7 °F 29.30 in South 2.8 mph 5.8 mph 93 % 0.00 in
04:06 57.6 °F 55.9 °F 29.30 in SSW 6.1 mph 10.4 mph 94 % 0.00 in
04:11 57.6 °F 55.9 °F 29.30 in SSW 6.1 mph 7.0 mph 94 % 0.00 in
04:16 57.6 °F 55.9 °F 29.30 in SSW 8.4 mph 15.0 mph 94 % 0.00 in
04:26 57.7 °F 56.0 °F 29.29 in SSW 5.5 mph 9.2 mph 94 % 0.00 in
04:36 57.6 °F 56.2 °F 29.28 in SSW 3.0 mph 6.9 mph 95 % 0.00 in
04:41 57.6 °F 56.2 °F 29.28 in SSE 3.9 mph 6.0 mph 95 % 0.00 in
04:46 57.6 °F 56.2 °F 29.28 in South 4.4 mph 13.8 mph 95 % 0.00 in
04:51 57.5 °F 56.1 °F 29.27 in SSW 3.6 mph 8.1 mph 95 % 0.00 in
04:56 57.5 °F 56.1 °F 29.27 in SSW 4.8 mph 9.2 mph 95 % 0.00 in
05:06 57.5 °F 56.1 °F 29.26 in SSW 6.4 mph 11.5 mph 95 % 0.00 in
05:11 57.5 °F 56.1 °F 29.26 in South 4.5 mph 12.7 mph 95 % 0.00 in
05:17 57.6 °F 56.2 °F 29.27 in SSW 6.2 mph 11.5 mph 95 % 0.00 in
05:22 57.6 °F 56.2 °F 29.28 in SSW 5.1 mph 17.3 mph 95 % 0.00 in
05:27 57.6 °F 56.5 °F 29.27 in South 7.0 mph 11.5 mph 96 % 0.00 in
05:32 57.7 °F 56.6 °F 29.27 in SSW 5.2 mph 10.4 mph 96 % 0.00 in
05:42 57.7 °F 56.6 °F 29.25 in SW 6.5 mph 12.0 mph 96 % 0.00 in
05:47 57.8 °F 56.7 °F 29.25 in South 6.1 mph 11.5 mph 96 % 0.00 in
05:52 57.8 °F 56.7 °F 29.25 in SSW 5.2 mph 15.0 mph 96 % 0.00 in
05:57 57.8 °F 56.7 °F 29.24 in South 3.9 mph 6.0 mph 96 % 0.00 in
06:02 57.8 °F 56.7 °F 29.24 in SW 6.4 mph 10.0 mph 96 % 0.00 in
06:07 57.8 °F 56.7 °F 29.24 in South 9.1 mph 16.1 mph 96 % 0.00 in
06:12 57.8 °F 56.7 °F 29.24 in SSW 7.9 mph 10.0 mph 96 % 0.00 in
06:17 57.8 °F 56.7 °F 29.24 in SSW 5.9 mph 10.4 mph 96 % 0.00 in
06:22 57.8 °F 56.7 °F 29.23 in SSW 5.8 mph 11.5 mph 96 % 0.00 in
06:27 57.8 °F 56.7 °F 29.24 in SSE 4.2 mph 15.0 mph 96 % 0.00 in
06:32 57.8 °F 56.7 °F 29.25 in SSW 8.3 mph 8.3 mph 96 % 0.00 in
06:43 57.8 °F 56.7 °F 29.23 in SSW 5.8 mph 11.5 mph 96 % 0.00 in
06:53 57.8 °F 56.7 °F 29.23 in South 5.4 mph 8.1 mph 96 % 0.00 in
06:58 57.8 °F 56.7 °F 29.23 in WSW 4.2 mph 13.8 mph 96 % 0.00 in
07:03 57.8 °F 56.7 °F 29.24 in SSW 5.7 mph 12.7 mph 96 % 0.00 in
07:05 57.8 °F 56.7 °F 29.24 in SSW 4.6 mph 9.2 mph 96 % 0.00 in
07:10 57.8 °F 56.7 °F 29.24 in SW 7.1 mph 11.0 mph 96 % 0.00 in
07:15 57.8 °F 56.7 °F 29.24 in SSW 6.2 mph 19.6 mph 96 % 0.00 in
07:20 57.8 °F 56.7 °F 29.24 in SW 4.1 mph 6.9 mph 96 % 0.00 in
07:25 57.8 °F 56.7 °F 29.23 in SW 5.0 mph 10.4 mph 96 % 0.00 in
07:30 57.6 °F 56.5 °F 29.23 in SSW 4.2 mph 12.7 mph 96 % 0.00 in
07:35 57.4 °F 56.0 °F 29.23 in South 7.8 mph 13.8 mph 95 % 0.00 in
07:40 57.1 °F 55.7 °F 29.24 in SW 5.5 mph 11.5 mph 95 % 0.00 in
07:50 56.8 °F 55.4 °F 29.24 in SW 6.4 mph 14.0 mph 95 % 0.00 in
07:55 56.7 °F 55.3 °F 29.24 in South 7.1 mph 11.5 mph 95 % 0.00 in
08:26 56.3 °F 54.9 °F 29.25 in SSW 8.0 mph 18.0 mph 95 % 0.00 in
08:31 56.3 °F 54.9 °F 29.26 in WSW 6.6 mph 11.5 mph 95 % 0.00 in
08:36 56.3 °F 54.9 °F 29.25 in SW 13.0 mph 23.0 mph 95 % 0.00 in
08:46 55.9 °F 53.3 °F 29.27 in SW 9.0 mph 17.0 mph 91 % 0.00 in
08:56 55.4 °F 50.6 °F 29.28 in WSW 12.0 mph 28.0 mph 84 % 0.00 in
09:06 55.0 °F 48.6 °F 29.29 in West 10.1 mph 21.9 mph 79 % 0.00 in
09:11 55.1 °F 48.4 °F 29.30 in WSW 13.7 mph 26.5 mph 78 % 0.00 in
09:26 54.9 °F 47.1 °F 29.31 in WSW 8.2 mph 15.0 mph 75 % 0.00 in
09:46 54.6 °F 46.1 °F 29.33 in NW 9.4 mph 13.0 mph 73 % 0.00 in
09:51 54.5 °F 46.0 °F 29.34 in WNW 10.2 mph 11.0 mph 73 % 0.00 in
09:56 54.2 °F 45.7 °F 29.35 in NNW 5.8 mph 11.0 mph 73 % 0.00 in
10:08 53.9 °F 44.3 °F 29.36 in NW 9.0 mph 13.8 mph 70 % 0.00 in
10:13 53.5 °F 42.4 °F 29.37 in West 11.6 mph 19.6 mph 66 % 0.00 in
10:18 53.2 °F 42.1 °F 29.39 in West 9.5 mph 24.2 mph 66 % 0.00 in
10:23 53.2 °F 42.1 °F 29.39 in West 7.5 mph 13.8 mph 66 % 0.00 in
10:28 53.1 °F 42.0 °F 29.39 in NW 7.1 mph 11.5 mph 66 % 0.00 in
10:33 52.8 °F 41.0 °F 29.40 in WNW 5.9 mph 17.3 mph 64 % 0.00 in
10:48 52.5 °F 41.1 °F 29.40 in NW 11.4 mph 19.6 mph 65 % 0.00 in
10:53 52.4 °F 41.0 °F 29.40 in WSW 6.4 mph 15.0 mph 65 % 0.00 in
10:58 52.2 °F 41.2 °F 29.41 in NNW 6.8 mph 16.0 mph 66 % 0.00 in
11:03 51.9 °F 40.1 °F 29.41 in WNW 10.8 mph 16.1 mph 64 % 0.00 in
11:08 51.4 °F 39.2 °F 29.42 in SW 12.4 mph 19.6 mph 63 % 0.00 in
11:22 50.5 °F 38.0 °F 29.42 in West 12.5 mph 19.6 mph 62 % 0.00 in
11:27 50.4 °F 38.3 °F 29.43 in WNW 8.6 mph 24.2 mph 63 % 0.00 in
11:32 50.2 °F 38.5 °F 29.44 in NE 11.4 mph 24.2 mph 64 % 0.00 in
11:37 49.9 °F 38.2 °F 29.43 in WNW 7.1 mph 19.6 mph 64 % 0.00 in
11:42 49.9 °F 38.2 °F 29.45 in WNW 17.8 mph 28.0 mph 64 % 0.00 in
11:47 49.8 °F 37.7 °F 29.44 in WNW 9.6 mph 20.7 mph 63 % 0.00 in
11:52 49.9 °F 37.4 °F 29.45 in West 14.7 mph 24.2 mph 62 % 0.00 in
11:57 49.9 °F 37.4 °F 29.45 in NNW 14.5 mph 21.9 mph 62 % 0.00 in
12:07 50.0 °F 38.3 °F 29.46 in NW 8.4 mph 27.6 mph 64 % 0.00 in
12:17 49.7 °F 37.6 °F 29.47 in WSW 14.1 mph 21.9 mph 63 % 0.00 in
12:22 49.8 °F 38.1 °F 29.47 in NNW 13.1 mph 15.0 mph 64 % 0.00 in
12:28 49.7 °F 37.6 °F 29.47 in WSW 8.2 mph 16.1 mph 63 % 0.00 in
12:32 49.6 °F 37.5 °F 29.48 in NNW 10.2 mph 19.6 mph 63 % 0.00 in
12:53 49.1 °F 37.4 °F 29.49 in NW 9.2 mph 19.6 mph 64 % 0.00 in
12:58 49.1 °F 37.4 °F 29.49 in West 10.4 mph 19.6 mph 64 % 0.00 in
13:08 49.0 °F 37.3 °F 29.50 in West 8.8 mph 17.3 mph 64 % 0.00 in
13:18 49.3 °F 37.2 °F 29.50 in NE 4.5 mph 17.3 mph 63 % 0.00 in
13:23 49.4 °F 36.5 °F 29.50 in WNW 7.6 mph 17.3 mph 61 % 0.00 in
13:28 49.3 °F 36.4 °F 29.50 in WNW 12.3 mph 23.0 mph 61 % 0.00 in
13:33 49.2 °F 35.9 °F 29.50 in NW 9.4 mph 19.6 mph 60 % 0.00 in
13:38 49.0 °F 36.5 °F 29.51 in West 10.9 mph 18.0 mph 62 % 0.00 in
13:43 48.9 °F 36.0 °F 29.50 in WNW 12.1 mph 19.6 mph 61 % 0.00 in
13:49 48.9 °F 36.4 °F 29.51 in WNW 14.5 mph 21.0 mph 62 % 0.00 in
13:54 49.0 °F 36.5 °F 29.51 in NW 9.2 mph 23.0 mph 62 % 0.00 in
13:59 49.1 °F 36.6 °F 29.51 in NNW 8.0 mph 13.8 mph 62 % 0.00 in
14:19 48.6 °F 36.2 °F 29.53 in WNW 11.8 mph 20.0 mph 62 % 0.00 in
14:24 48.5 °F 37.3 °F 29.53 in NW 9.2 mph 16.1 mph 65 % 0.00 in
14:29 48.3 °F 37.5 °F 29.54 in West 12.1 mph 26.5 mph 66 % 0.00 in
14:34 48.1 °F 36.9 °F 29.54 in East 8.5 mph 15.0 mph 65 % 0.00 in
14:44 47.7 °F 36.1 °F 29.55 in West 7.1 mph 16.1 mph 64 % 0.00 in
15:09 47.0 °F 35.4 °F 29.57 in NW 7.8 mph 13.8 mph 64 % 0.00 in
15:19 46.7 °F 34.4 °F 29.58 in West 11.2 mph 21.9 mph 62 % 0.00 in
15:24 46.6 °F 34.7 °F 29.58 in NNW 9.2 mph 24.2 mph 63 % 0.00 in
15:29 46.4 °F 34.5 °F 29.58 in WNW 10.9 mph 20.7 mph 63 % 0.00 in
15:34 46.3 °F 34.4 °F 29.58 in West 10.6 mph 18.4 mph 63 % 0.00 in
15:39 46.2 °F 34.3 °F 29.58 in West 12.1 mph 20.7 mph 63 % 0.00 in
15:49 46.1 °F 33.8 °F 29.59 in West 9.0 mph 18.4 mph 62 % 0.00 in
15:59 46.0 °F 34.1 °F 29.60 in West 6.2 mph 11.5 mph 63 % 0.00 in
16:04 46.0 °F 33.7 °F 29.60 in NW 5.1 mph 19.6 mph 62 % 0.00 in
16:09 45.9 °F 34.0 °F 29.60 in NNW 9.7 mph 13.8 mph 63 % 0.00 in
16:14 45.8 °F 33.9 °F 29.61 in WNW 7.3 mph 9.2 mph 63 % 0.00 in
16:19 45.8 °F 33.9 °F 29.61 in West 4.4 mph 11.5 mph 63 % 0.00 in
16:24 45.7 °F 33.0 °F 29.61 in West 8.4 mph 15.0 mph 61 % 0.00 in
16:34 45.7 °F 34.2 °F 29.61 in West 7.1 mph 16.0 mph 64 % 0.00 in
16:39 45.7 °F 34.2 °F 29.62 in NW 8.9 mph 19.6 mph 64 % 0.00 in
16:44 45.7 °F 33.4 °F 29.63 in NW 13.6 mph 17.0 mph 62 % 0.00 in
16:50 45.6 °F 32.5 °F 29.63 in NW 9.4 mph 17.3 mph 60 % 0.00 in
16:55 45.4 °F 31.9 °F 29.63 in NW 6.0 mph 19.6 mph 59 % 0.00 in
17:05 45.1 °F 31.2 °F 29.63 in NNW 10.8 mph 18.4 mph 58 % 0.00 in
17:15 45.1 °F 32.0 °F 29.64 in WNW 9.2 mph 16.1 mph 60 % 0.00 in
17:30 44.9 °F 32.3 °F 29.66 in WNW 10.0 mph 24.2 mph 61 % 0.01 in
17:35 44.8 °F 31.3 °F 29.66 in WNW 12.6 mph 21.0 mph 59 % 0.02 in
17:40 44.7 °F 31.7 °F 29.67 in NW 10.1 mph 17.3 mph 60 % 0.02 in
17:50 44.6 °F 31.6 °F 29.66 in WNW 8.4 mph 19.6 mph 60 % 0.03 in
17:55 44.5 °F 31.5 °F 29.66 in WNW 3.3 mph 12.0 mph 60 % 0.03 in
18:00 44.4 °F 31.0 °F 29.67 in NNW 7.0 mph 11.5 mph 59 % 0.04 in
18:05 44.3 °F 31.3 °F 29.67 in West 4.6 mph 10.0 mph 60 % 0.04 in
18:10 44.3 °F 31.3 °F 29.67 in West 5.8 mph 12.0 mph 60 % 0.04 in
18:15 44.2 °F 31.6 °F 29.68 in WNW 5.1 mph 15.0 mph 61 % 0.04 in
18:20 44.3 °F 31.7 °F 29.68 in WNW 3.6 mph 8.1 mph 61 % 0.05 in
18:25 44.3 °F 32.1 °F 29.68 in WNW 5.1 mph 9.2 mph 62 % 0.04 in
18:35 44.2 °F 30.8 °F 29.68 in NW 5.6 mph 13.0 mph 59 % 0.04 in
18:40 44.2 °F 31.2 °F 29.69 in WNW 8.2 mph 14.0 mph 60 % 0.04 in
18:45 44.2 °F 30.3 °F 29.69 in West 8.8 mph 17.3 mph 58 % 0.04 in
18:50 44.2 °F 30.8 °F 29.70 in WNW 9.6 mph 20.7 mph 59 % 0.03 in
18:55 44.3 °F 30.9 °F 29.69 in West 5.4 mph 11.5 mph 59 % 0.03 in
19:00 44.3 °F 31.3 °F 29.70 in SW 8.5 mph 10.4 mph 60 % 0.03 in
19:05 44.3 °F 31.3 °F 29.70 in WNW 5.3 mph 9.2 mph 60 % 0.03 in
19:15 44.2 °F 30.8 °F 29.70 in West 5.0 mph 10.4 mph 59 % 0.03 in
19:31 44.1 °F 31.1 °F 29.71 in WSW 4.1 mph 7.0 mph 60 % 0.03 in
19:36 44.1 °F 31.1 °F 29.71 in WNW 5.0 mph 9.0 mph 60 % 0.00 in
19:41 44.0 °F 31.0 °F 29.71 in WNW 3.0 mph 8.0 mph 60 % 0.00 in
19:51 43.9 °F 30.9 °F 29.71 in West 3.0 mph 12.0 mph 60 % 0.00 in
20:06 43.8 °F 30.8 °F 29.72 in NW 6.0 mph 20.0 mph 60 % 0.00 in
20:11 43.8 °F 31.2 °F 29.72 in WNW 5.3 mph 15.0 mph 61 % 0.01 in
20:16 43.9 °F 31.3 °F 29.72 in WSW 8.7 mph 15.0 mph 61 % 0.01 in
20:21 43.9 °F 31.3 °F 29.72 in WNW 7.0 mph 20.0 mph 61 % 0.00 in
20:31 43.9 °F 31.3 °F 29.72 in WNW 8.0 mph 20.0 mph 61 % 0.00 in
20:36 43.9 °F 30.9 °F 29.73 in NW 8.0 mph 16.0 mph 60 % 0.00 in
20:46 44.0 °F 31.8 °F 29.73 in WNW 6.0 mph 12.0 mph 62 % 0.00 in
21:01 44.0 °F 32.2 °F 29.73 in South 7.9 mph 12.7 mph 63 % 0.00 in
21:06 44.0 °F 32.2 °F 29.73 in WSW 6.4 mph 16.1 mph 63 % 0.00 in
21:10 44.0 °F 32.6 °F 29.73 in WNW 6.6 mph 10.0 mph 64 % 0.00 in
21:15 44.0 °F 32.2 °F 29.74 in WNW 4.0 mph 11.5 mph 63 % 0.00 in
21:21 44.0 °F 32.2 °F 29.74 in West 5.0 mph 15.0 mph 63 % 0.00 in
21:26 44.0 °F 32.2 °F 29.74 in West 2.0 mph 13.0 mph 63 % 0.00 in
21:41 43.8 °F 32.4 °F 29.75 in WNW 4.1 mph 4.1 mph 64 % 0.00 in
21:46 43.6 °F 32.2 °F 29.75 in West 4.9 mph 12.7 mph 64 % 0.00 in
21:51 43.5 °F 31.7 °F 29.75 in WNW 7.5 mph 12.7 mph 63 % 0.00 in
22:01 43.4 °F 32.4 °F 29.75 in West 4.3 mph 12.7 mph 65 % 0.00 in
22:06 43.3 °F 32.3 °F 29.75 in SSW 3.5 mph 6.9 mph 65 % 0.00 in
22:11 43.3 °F 32.3 °F 29.76 in West 3.7 mph 9.2 mph 65 % 0.00 in
22:31 43.0 °F 32.0 °F 29.76 in West 5.9 mph 12.0 mph 65 % 0.00 in
22:36 43.1 °F 32.1 °F 29.77 in WSW 6.3 mph 9.2 mph 65 % 0.00 in
22:41 43.1 °F 32.1 °F 29.77 in WNW 6.3 mph 13.8 mph 65 % 0.00 in
22:46 43.2 °F 32.2 °F 29.76 in WSW 2.9 mph 15.0 mph 65 % 0.00 in
22:51 43.3 °F 32.3 °F 29.77 in West 3.9 mph 5.0 mph 65 % 0.00 in
22:56 43.4 °F 33.2 °F 29.77 in WSW 12.0 mph 15.0 mph 67 % 0.00 in
23:06 43.4 °F 33.9 °F 29.77 in WSW 9.7 mph 11.5 mph 69 % 0.00 in
23:16 43.3 °F 33.4 °F 29.77 in WSW 5.1 mph 16.1 mph 68 % 0.00 in
23:22 43.2 °F 33.3 °F 29.77 in WSW 7.7 mph 13.8 mph 68 % 0.00 in
23:27 43.1 °F 33.3 °F 29.78 in WSW 2.6 mph 6.9 mph 68 % 0.00 in
23:32 42.9 °F 33.1 °F 29.77 in WSW 4.4 mph 12.7 mph 68 % 0.00 in
23:37 42.8 °F 33.3 °F 29.78 in West 3.4 mph 12.7 mph 69 % 0.00 in
23:52 42.4 °F 33.7 °F 29.78 in NW 4.0 mph 8.1 mph 71 % 0.00 in
Crab Meadow Weather
Compliments of Weather Underground - 2.5 mb

Script developed by  Jim McMurry - jmcmurry@mwt.net Adapted for the template by  Wim van der Kuil - Leuven-Template.eu

Weather Terms: Watch - A watch is used when the risk of a hazardous weather or hydrologic event has increased significantly, but its occurrence, location or timing is still uncertain. It is intended to provide enough lead time so those who need to set their plans in motion can do so. A watch means that hazardous weather is possible. People should have a plan of action in case a storm threatens and they should listen for later information and possible warnings especially when planning travel or outdoor activities.